| time (UTC) | temp F | wind direction | speed MPH | gust MPH | rain 1hr in | rain 24hr in | rain mn in | humidity % | barometer mb |
| 20260510213145 | 66 | 257 | 16.0 | 27.0 | 0.00 | 0.00 | 0.00 | 54 | 1018.1 |
| 20260510211532 | 65 | 260 | 15.0 | 26.0 | 0.00 | 0.00 | 0.00 | 56 | 1017.9 |
| 20260510210032 | 63 | 254 | 18.0 | 35.0 | 0.00 | 0.00 | 0.00 | 55 | 1017.8 |
| 20260510204531 | 64 | 257 | 16.0 | 28.0 | 0.00 | 0.00 | 0.00 | 56 | 1017.6 |
| 20260510203029 | 66 | 262 | 15.0 | 26.0 | 0.00 | 0.00 | 0.00 | 53 | 1017.3 |
| 20260510200033 | 67 | 254 | 16.0 | 31.0 | 0.00 | 0.00 | 0.00 | 57 | 1017.1 |
| 20260510194530 | 66 | 270 | 13.0 | 24.0 | 0.00 | 0.00 | 0.00 | 61 | 1017.3 |
| 20260510193030 | 64 | 268 | 13.0 | 23.0 | 0.00 | 0.00 | 0.00 | 65 | 1017.4 |
| 20260510184531 | 61 | 271 | 11.0 | 21.0 | 0.00 | 0.00 | 0.00 | 71 | 1017.5 |
| 20260510183034 | 61 | 269 | 11.0 | 21.0 | 0.00 | 0.00 | 0.00 | 71 | 1017.4 |
| 20260510180107 | 59 | 259 | 13.0 | 23.0 | 0.00 | 0.00 | 0.00 | 73 | 1017.4 |
| 20260510174530 | 59 | 258 | 11.0 | 19.0 | 0.00 | 0.00 | 0.00 | 75 | 1017.5 |
| 20260510173032 | 59 | 262 | 11.0 | 22.0 | 0.00 | 0.00 | 0.00 | 75 | 1017.4 |
| 20260510170030 | 58 | 253 | 11.0 | 19.0 | 0.00 | 0.00 | 0.00 | 77 | 1017.4 |
| 20260510163030 | 57 | 250 | 11.0 | 18.0 | 0.00 | 0.00 | 0.00 | 79 | 1017.4 |
| 20260510160031 | 56 | 245 | 8.0 | 18.0 | 0.00 | 0.00 | 0.00 | 81 | 1017.4 |
| 20260510154533 | 55 | 238 | 6.0 | 13.0 | 0.00 | 0.00 | 0.00 | 82 | 1017.3 |
| 20260510153030 | 55 | 243 | 7.0 | 15.0 | 0.00 | 0.00 | 0.00 | 82 | 1017.3 |
| 20260510151530 | 54 | 242 | 6.0 | 13.0 | 0.00 | 0.00 | 0.00 | 82 | 1017.3 |
| 20260510150029 | 54 | 242 | 6.0 | 13.0 | 0.00 | 0.00 | 0.00 | 81 | 1017.5 |
| 20260510144531 | 54 | 230 | 3.0 | 10.0 | 0.00 | 0.00 | 0.00 | 80 | 1017.2 |
| 20260510143032 | 53 | 153 | 1.0 | 4.0 | 0.00 | 0.00 | 0.00 | 80 | 1017.1 |
| 20260510141607 | 52 | 168 | 2.0 | 6.0 | 0.00 | 0.00 | 0.00 | 79 | 1017.0 |
| 20260510140031 | 52 | 188 | 1.0 | 6.0 | 0.00 | 0.00 | 0.00 | 79 | 1017.1 |
| 20260510134645 | 52 | 261 | 3.0 | 8.0 | 0.00 | 0.00 | 0.00 | 79 | 1017.1 |
| 20260510133036 | 50 | 241 | 2.0 | 5.0 | 0.00 | 0.00 | 0.00 | 80 | 1017.0 |
| 20260510131529 | 49 | 180 | 3.0 | 8.0 | 0.00 | 0.00 | 0.00 | 79 | 1017.1 |
| 20260510130031 | 49 | 168 | 2.0 | 5.0 | 0.00 | 0.00 | 0.00 | 79 | 1017.0 |
| 20260510124529 | 48 | 165 | 2.0 | 6.0 | 0.00 | 0.00 | 0.00 | 79 | 1017.1 |
| 20260510123118 | 48 | 140 | 2.0 | 5.0 | 0.00 | 0.00 | 0.00 | 78 | 1017.2 |
| 20260510121530 | 49 | 178 | 1.0 | 4.0 | 0.00 | 0.00 | 0.00 | 77 | 1017.0 |
| 20260510114530 | 48 | 182 | 2.0 | 6.0 | 0.00 | 0.00 | 0.00 | 75 | 1017.0 |
| 20260510113031 | 48 | 157 | 4.0 | 6.0 | 0.00 | 0.00 | 0.00 | 74 | 1016.7 |
| 20260510111531 | 49 | 162 | 4.0 | 5.0 | 0.00 | 0.00 | 0.00 | 72 | 1016.6 |
| 20260510110031 | 49 | 146 | 4.0 | 5.0 | 0.00 | 0.00 | 0.00 | 71 | 1016.7 |
| 20260510104532 | 50 | 143 | 4.0 | 6.0 | 0.00 | 0.00 | 0.00 | 69 | 1016.8 |
| 20260510101606 | 51 | 170 | 3.0 | 6.0 | 0.00 | 0.00 | 0.00 | 67 | 1016.7 |
| 20260510100030 | 51 | 153 | 4.0 | 6.0 | 0.00 | 0.00 | 0.00 | 65 | 1016.6 |
| 20260510094531 | 51 | 155 | 4.0 | 6.0 | 0.00 | 0.00 | 0.00 | 65 | 1016.6 |
| 20260510093029 | 52 | 149 | 4.0 | 7.0 | 0.00 | 0.00 | 0.00 | 64 | 1016.6 |
| 20260510090031 | 53 | 137 | 5.0 | 7.0 | 0.00 | 0.00 | 0.00 | 60 | 1016.7 |
| 20260510084530 | 53 | 150 | 4.0 | 7.0 | 0.00 | 0.00 | 0.00 | 60 | 1016.9 |
| 20260510083030 | 54 | 151 | 6.0 | 9.0 | 0.00 | 0.00 | 0.00 | 58 | 1017.0 |
| 20260510080029 | 56 | 147 | 5.0 | 9.0 | 0.00 | 0.00 | 0.00 | 55 | 1017.1 |
| 20260510074605 | 55 | 152 | 5.0 | 9.0 | 0.00 | 0.00 | 0.00 | 55 | 1017.1 |
| 20260510073031 | 56 | 149 | 5.0 | 8.0 | 0.00 | 0.00 | 0.00 | 55 | 1017.1 |
| 20260510071531 | 55 | 137 | 5.0 | 7.0 | 0.00 | 0.00 | 0.00 | 55 | 1017.1 |
| 20260510064530 | 57 | 130 | 5.0 | 8.0 | 0.00 | 0.00 | 0.00 | 53 | 1016.9 |
| 20260510063104 | 57 | 149 | 6.0 | 8.0 | 0.00 | 0.00 | 0.00 | 53 | 1016.8 |
| 20260510061529 | 58 | 143 | 3.0 | 6.0 | 0.00 | 0.00 | 0.00 | 51 | 1016.8 |
| 20260510060033 | 58 | 132 | 5.0 | 7.0 | 0.00 | 0.00 | 0.00 | 50 | 1016.7 |
| 20260510054529 | 60 | 132 | 4.0 | 6.0 | 0.00 | 0.00 | 0.00 | 48 | 1016.6 |
| 20260510050031 | 63 | 79 | 2.0 | 4.0 | 0.00 | 0.00 | 0.00 | 42 | 1016.3 |
| 20260510044530 | 65 | 73 | 2.0 | 7.0 | 0.00 | 0.00 | 0.00 | 40 | 1016.3 |
| 20260510043032 | 65 | 91 | 2.0 | 5.0 | 0.00 | 0.00 | 0.00 | 38 | 1016.2 |
| 20260510041541 | 65 | 112 | 2.0 | 4.0 | 0.00 | 0.00 | 0.00 | 37 | 1015.9 |
| 20260510041532 | 66 | 69 | 3.0 | 6.0 | 0.00 | 0.00 | 0.00 | 37 | 1015.7 |
| 20260510033106 | 67 | 151 | 3.0 | 5.0 | 0.00 | 0.00 | 0.00 | 44 | 1015.6 |
| 20260510031530 | 67 | 154 | 4.0 | 6.0 | 0.00 | 0.00 | 0.00 | 45 | 1015.5 |
| 20260510030031 | 68 | 159 | 4.0 | 6.0 | 0.00 | 0.00 | 0.00 | 44 | 1015.5 |
| 20260510024531 | 69 | 154 | 4.0 | 6.0 | 0.00 | 0.00 | 0.00 | 43 | 1015.4 |
| 20260510023029 | 72 | 101 | 4.0 | 5.0 | 0.00 | 0.00 | 0.00 | 39 | 1015.3 |
| 20260510021531 | 73 | 67 | 2.0 | 4.0 | 0.00 | 0.00 | 0.00 | 37 | 1015.4 |
| 20260510014603 | 77 | 49 | 3.0 | 5.0 | 0.00 | 0.00 | 0.00 | 29 | 1015.6 |
| 20260510011530 | 80 | 25 | 4.0 | 6.0 | 0.00 | 0.00 | 0.00 | 27 | 1015.7 |
| 20260510010030 | 81 | 14 | 4.0 | 6.0 | 0.00 | 0.00 | 0.00 | 27 | 1015.8 |
| 20260510004530 | 80 | 22 | 4.0 | 7.0 | 0.00 | 0.00 | 0.00 | 26 | 1015.8 |
| 20260510003106 | 80 | 16 | 4.0 | 8.0 | 0.00 | 0.00 | 0.00 | 26 | 1015.9 |
| 20260510001530 | 80 | 37 | 4.0 | 6.0 | 0.00 | 0.00 | 0.00 | 25 | 1015.9 |
| 20260510000031 | 82 | 20 | 5.0 | 8.0 | 0.00 | 0.00 | 0.00 | 24 | 1016.3 |
| 20260509234529 | 82 | 28 | 4.0 | 7.0 | 0.00 | 0.00 | 0.00 | 23 | 1016.5 |
| 20260509233031 | 82 | 16 | 5.0 | 11.0 | 0.00 | 0.00 | 0.00 | 24 | 1016.6 |
| 20260509231605 | 82 | 359 | 5.0 | 9.0 | 0.00 | 0.00 | 0.00 | 24 | 1016.9 |
| 20260509230029 | 82 | 359 | 5.0 | 12.0 | 0.00 | 0.00 | 0.00 | 24 | 1017.3 |
| 20260509224537 | 82 | 360 | 5.0 | 10.0 | 0.00 | 0.00 | 0.00 | 25 | 1017.4 |
| 20260509221531 | 81 | 32 | 4.0 | 7.0 | 0.00 | 0.00 | 0.00 | 26 | 1017.9 |
| 20260509220032 | 80 | 39 | 5.0 | 9.0 | 0.00 | 0.00 | 0.00 | 28 | 1018.1 |
| 20260509214606 | 79 | 3 | 6.0 | 12.0 | 0.00 | 0.00 | 0.00 | 32 | 1018.4 |